CAPE
0 4 1 2 3 3 2 0 0 0 0 0 8 3 0 0 0 0 0 0 0 0 0 0 0 0 0 0 0 0 0 0 0 0 0 0 0 0 0 0 0 0 0 0 0 0 0 0 0 0 0 0 0 0
0 7 2 1 3 3 1 2 0 0 0 0 5 10 2 0 0 0 0 0 0 0 0 0 0 0 0 0 0 0 0 0 0 0 0 0 0 0 0 0 0 0 0 0 0 0 0 0 0 0 0 0 0 0
5 8 2 2 3 3 4 0 0 1 0 0 3 20 6 0 0 0 0 0 0 0 0 0 0 0 0 0 0 0 0 0 0 0 0 0 0 0 0 0 0 0 0 0 0 0 0 0 0 0 0 0 0 0
15 14 8 4 1 4 3 6 2 2 1 3 4 13 10 2 0 0 0 0 0 0 0 0 0 0 0 0 0 0 0 0 0 0 0 0 0 0 0 0 0 0 0 0 0 0 0 0 0 0 0 0 0 0
14 12 9 8 1 2 5 2 3 3 0 5 7 4 16 2 0 0 0 0 0 0 0 0 0 0 0 0 0 0 0 0 0 0 0 0 0 0 0 0 0 0 0 0 0 0 0 0 0 0 0 0 0 0
0 7 10 5 4 0 2 4 1 2 1 0 6 14 18 1 0 0 0 0 0 0 0 0 0 0 0 0 0 0 0 0 0 0 0 0 0 0 0 0 0 0 0 0 0 0 0 0 0 0 0 0 0 0
0 0 16 8 7 5 0 1 2 2 2 2 1 8 17 0 0 0 0 0 0 0 0 0 0 0 0 0 0 0 0 0 0 0 0 0 0 0 0 0 0 0 0 0 0 0 0 0 0 0 0 0 0 0
0 0 1 8 11 7 3 2 3 0 1 1 7 13 17 1 0 0 0 0 0 0 0 0 0 0 0 0 0 0 0 0 0 0 0 0 0 0 0 0 0 0 0 0 0 0 0 0 0 0 0 0 0 0
0 0 0 0 8 15 7 1 3 0 0 1 1 6 1 0 0 0 0 0 0 0 0 0 0 0 0 0 0 0 0 0 0 0 0 0 0 0 0 0 0 0 0 0 0 0 0 0 0 0 0 0 0 0
0 2 1 2 0 5 11 4 2 0 0 0 0 1 0 0 0 0 0 0 0 0 0 0 0 0 0 0 0 0 0 0 0 0 0 0 0 0 0 0 0 0 0 0 0 0 0 0 0 0 0 0 0 0
4 0 4 1 3 0 9 4 2 1 9 1 0 1 1 0 0 0 0 0 0 0 0 0 0 0 0 0 0 0 0 0 0 0 0 0 0 0 0 0 0 0 0 0 0 0 0 0 0 0 0 0 0 0
4 0 4 3 3 0 2 7 1 1 2 1 0 1 0 1 1 0 0 0 0 0 0 0 0 0 0 0 0 0 0 0 0 0 0 0 0 0 0 0 0 0 0 0 0 0 0 0 0 0 0 0 0 0
19 0 1 3 2 0 7 16 4 2 2 0 0 0 0 0 0 0 0 0 0 0 0 0 0 0 0 0 0 0 0 0 0 0 0 0 0 0 0 0 0 0 0 0 0 0 0 0 0 0 0 0 0 0
21 8 0 12 17 1 3 20 9 4 2 0 0 0 0 0 0 0 0 0 0 0 0 0 0 0 0 0 0 0 0 0 0 0 0 0 0 0 0 0 0 0 0 0 0 0 0 0 0 0 0 0 0 0
5 9 6 12 17 6 3 11 8 10 3 2 0 0 0 0 0 0 0 0 0 0 0 0 0 0 0 0 0 0 0 0 0 0 0 0 0 0 0 0 0 0 0 0 0 0 0 0 0 0 0 0 0 0
0 19 4 0 1 1 8 14 13 5 1 0 0 0 0 0 0 0 0 0 0 0 0 0 0 0 0 0 0 0 0 0 0 0 0 0 0 0 0 0 0 0 0 0 0 0 0 0 0 0 0 0 0 0
14 2 0 0 0 6 30 8 2 0 1 1 0 0 0 0 0 0 0 0 0 0 0 0 0 0 0 0 0 0 0 0 0 0 0 0 0 0 0 0 0 0 0 0 0 0 0 0 0 0 0 0 0 0
0 0 0 0 9 29 1 0 0 0 0 0 0 0 0 0 0 0 0 0 0 0 0 0 0 0 0 0 0 0 0 0 0 0 0 0 0 0 0 0 0 0 0 0 0 0 0 0 0 0 0 0 0 0
0 0 0 16 11 0 0 0 0 3 0 0 0 0 0 0 0 0 0 0 0 0 2 0 0 0 0 0 0 0 0 0 0 0 0 0 0 0 0 0 0 0 0 0 0 0 0 0 0 0 0 0 0 0
13 7 17 9 4 0 0 0 0 0 0 0 0 0 0 0 0 0 0 0 0 0 13 3 0 0 0 0 0 0 0 0 0 0 0 0 0 0 0 0 0 0 0 0 0 0 0 0 0 0 0 0 0 0
18 6 18 17 4 0 0 0 0 1 0 0 0 0 0 0 0 0 0 0 0 3 1 0 0 0 0 0 0 0 0 0 0 0 0 0 0 0 0 0 0 0 0 0 0 0 0 0 0 0 0 0 0 0
0 16 2 0 0 0 0 0 0 0 0 0 0 0 0 0 0 0 0 0 3 0 0 0 0 0 0 0 0 0 0 0 0 0 0 0 0 0 0 0 0 0 0 0 0 0 0 0 0 0 0 0 0 0
0 0 0 0 0 0 0 0 0 0 0 0 0 0 0 0 0 0 1 0 0 0 0 0 0 0 0 0 0 0 0 0 0 0 0 0 0 0 0 0 0 0 0 0 0 0 0 0 0 0 0 0 0 0
0 0 0 0 0 0 0 0 0 0 0 0 0 0 0 0 0 0 0 0 0 0 0 0 0 0 0 0 0 0 0 0 0 0 0 0 0 0 0 0 0 0 0 0 0 0 0 0 0 0 0 0 0 0
0 0 0 0 0 0 0 0 0 0 0 0 0 0 0 0 0 0 0 0 0 0 0 0 0 0 0 0 0 0 0 0 0 0 0 0 0 0 0 0 0 0 0 0 0 0 0 0 0 0 0 0 0 0
0 0 0 0 0 0 0 0 0 0 0 0 0 0 0 0 0 0 0 0 0 0 0 0 0 0 0 0 0 0 0 0 0 0 0 0 0 0 0 0 0 0 0 0 0 0 0 0 0 0 0 0 0 0
0 0 0 0 0 0 0 0 0 0 0 0 0 0 0 0 0 0 0 0 0 0 0 0 0 0 0 0 0 0 0 0 0 0 0 0 0 0 0 0 0 0 0 0 0 0 0 0 0 0 0 0 0 0
0 0 0 0 0 0 0 0 0 0 0 0 0 0 0 0 0 0 0 0 0 0 0 0 0 0 0 0 0 0 0 0 0 0 0 0 0 0 0 0 0 0 0 0 0 0 0 0 0 0 0 0 0 0
0 0 0 0 0 0 0 0 0 0 0 0 0 0 0 0 0 0 0 0 0 0 0 0 0 0 0 0 0 0 0 0 0 0 0 0 0 0 0 0 0 0 0 0 0 0 0 0 0 0 0 0 0 0
0 0 0 0 0 0 0 0 0 0 0 0 0 0 0 0 0 0 0 0 0 0 0 0 0 0 0 0 0 0 0 0 0 0 0 0 0 0 0 0 0 0 0 0 0 0 0 0 0 0 0 0 0 0
0 0 0 0 0 0 0 0 0 0 0 0 0 0 0 0 0 0 0 0 0 0 0 0 0 0 0 0 0 0 0 0 0 0 0 0 0 0 0 0 0 0 0 0 0 0 0 0 0 0 0 0 0 0
0 0 0 0 0 0 0 0 0 0 0 0 0 0 0 0 0 0 0 0 0 0 0 0 0 0 0 0 0 0 0 0 0 0 0 0 0 0 0 0 0 0 0 0 0 0 0 0 0 0 0 0 0 0
0 0 0 0 0 0 0 0 0 0 0 0 0 0 0 0 0 0 0 0 0 0 0 0 0 0 0 0 0 0 0 0 0 0 0 0 0 0 0 0 0 0 0 0 0 0 0 0 0 0 0 0 0 0
CIN
-0 -0 -0 -0 -0 -0 -0 -0 -0 -0 -3 -7 -8 -6 -0 -0 -0 -0 -0 -0 -0 -0 -0 -0 -0 -0 -0 -0 -0 -0 -0 -0 -0 -0 -0 -0 -0 -0 -0 -0 -0 -0 -0 -0 -0 -0 -0 -0 -0 -0 -0 -0 -0 -0
-0 -0 -0 -0 -0 -0 -0 -1 -0 -0 -0 -0 -9 -13 -6 -0 -0 -0 -0 -0 -0 -0 -0 -0 -0 -0 -0 -0 -0 -0 -0 -0 -0 -0 -0 -0 -0 -0 -0 -0 -0 -0 -0 -0 -0 -0 -0 -0 -0 -0 -0 -0 -0 -0
-0 -0 -0 -0 -0 -0 -0 -0 -2 -4 -1 -0 -9 -8 -19 -2 -0 -0 -0 -0 -0 -0 -0 -0 -0 -0 -0 -0 -0 -0 -0 -0 -0 -0 -0 -0 -0 -0 -0 -0 -0 -0 -0 -0 -0 -0 -0 -0 -0 -0 -0 -0 -0 -0
-0 -0 -0 -0 -0 -0 -0 -0 -0 -1 -4 -6 -8 -6 -9 -24 -0 -0 -0 -0 -0 -0 -0 -0 -0 -0 -0 -0 -0 -0 -0 -0 -0 -0 -0 -0 -0 -0 -0 -0 -0 -0 -0 -0 -0 -0 -0 -0 -0 -0 -0 -0 -0 -0
-0 -0 -0 -0 -0 -0 -0 -0 -0 -0 -0 -6 -7 -8 -5 -18 -0 -0 -0 -0 -0 -0 -0 -0 -0 -0 -0 -0 -0 -0 -0 -0 -0 -0 -0 -0 -0 -0 -0 -0 -0 -0 -0 -0 -0 -0 -0 -0 -0 -0 -0 -0 -0 -0
-0 -1 -0 -0 -0 -0 -0 -0 -0 -0 -0 -0 -4 -5 -4 -12 -0 -0 -0 -0 -0 -0 -0 -0 -0 -0 -0 -0 -0 -0 -0 -0 -0 -0 -0 -0 -0 -0 -0 -0 -0 -0 -0 -0 -0 -0 -0 -0 -0 -0 -0 -0 -0 -0
-0 -0 -0 -0 -0 -1 -0 -0 -0 -0 -0 -0 -2 -2 -1 -2 -0 -0 -0 -0 -0 -0 -0 -0 -0 -0 -0 -0 -0 -0 -0 -0 -0 -0 -0 -0 -0 -0 -0 -0 -0 -0 -0 -0 -0 -0 -0 -0 -0 -0 -0 -0 -0 -0
-0 -0 -0 -0 -0 -1 -2 -1 -0 -0 -0 -0 -0 -0 -0 -0 -0 -0 -0 -0 -0 -0 -0 -0 -0 -0 -0 -0 -0 -0 -0 -0 -0 -0 -0 -0 -0 -0 -0 -0 -0 -0 -0 -0 -0 -0 -0 -0 -0 -0 -0 -0 -0 -0
-0 -0 -0 -0 -0 -0 -1 -2 -1 -0 -0 -0 -0 -1 -0 -3 -0 -0 -0 -0 -0 -0 -0 -0 -0 -0 -0 -0 -0 -0 -0 -0 -0 -0 -0 -0 -0 -0 -0 -0 -0 -0 -0 -0 -0 -0 -0 -0 -0 -0 -0 -0 -0 -0
-0 -0 -0 -0 -0 -0 -1 -1 -1 -0 -1 -0 -0 -1 -2 -0 -0 -0 -0 -0 -0 -0 -0 -0 -0 -0 -0 -0 -0 -0 -0 -0 -0 -0 -0 -0 -0 -0 -0 -0 -0 -0 -0 -0 -0 -0 -0 -0 -0 -0 -0 -0 -0 -0
-0 -0 -0 -0 -0 -0 -1 -3 -1 -9 -9 -0 -0 -0 -0 -0 -0 -0 -0 -0 -0 -0 -0 -0 -0 -0 -0 -0 -0 -0 -0 -0 -0 -0 -0 -0 -0 -0 -0 -0 -0 -0 -0 -0 -0 -0 -0 -0 -0 -0 -0 -0 -0 -0
-1 -0 -0 -0 -0 -0 -3 -3 -3 -4 -1 -0 -0 -2 -0 -0 -0 -0 -0 -0 -0 -0 -0 -0 -0 -0 -0 -0 -0 -0 -0 -0 -0 -0 -0 -0 -0 -0 -0 -0 -0 -0 -0 -0 -0 -0 -0 -0 -0 -0 -0 -0 -0 -0
-0 -0 -0 -0 -0 -0 -2 -2 -7 -3 -1 -0 -0 -0 -0 -0 -0 -0 -0 -0 -0 -0 -0 -0 -0 -0 -0 -0 -0 -0 -0 -0 -0 -0 -0 -0 -0 -0 -0 -0 -0 -0 -0 -0 -0 -0 -0 -0 -0 -0 -0 -0 -0 -0
-0 -0 -0 -1 -0 -1 -2 -2 -9 -2 -0 -0 -0 -0 -0 -0 -0 -0 -0 -0 -0 -0 -0 -0 -0 -0 -0 -0 -0 -0 -0 -0 -0 -0 -0 -0 -0 -0 -0 -0 -0 -0 -0 -0 -0 -0 -0 -0 -0 -0 -0 -0 -0 -0
-3 -0 -0 -0 -1 -0 -3 -6 -10 -4 -19 -15 -0 -0 -0 -0 -0 -0 -0 -0 -0 -0 -0 -0 -0 -0 -0 -0 -0 -0 -0 -0 -0 -0 -0 -0 -0 -0 -0 -0 -0 -0 -0 -0 -0 -0 -0 -0 -0 -0 -0 -0 -0 -0
-2 -0 -2 -0 -1 -1 -10 -3 -4 -10 -13 -0 -0 -0 -0 -0 -0 -0 -0 -0 -0 -0 -0 -0 -0 -0 -0 -0 -0 -0 -0 -0 -0 -0 -0 -0 -0 -0 -0 -0 -0 -0 -0 -0 -0 -0 -0 -0 -0 -0 -0 -0 -0 -0
-1 -5 -0 -0 -0 -5 -1 -3 -7 -1 -26 -14 -0 -0 -0 -0 -0 -0 -0 -0 -0 -0 -0 -0 -0 -0 -0 -0 -0 -0 -0 -0 -0 -0 -0 -0 -0 -0 -0 -0 -0 -0 -0 -0 -0 -0 -0 -0 -0 -0 -0 -0 -0 -0
-0 -0 -0 -0 -3 -0 -0 -0 -14 -0 -0 -0 -0 -0 -0 -0 -0 -0 -0 -0 -0 -0 -0 -0 -0 -0 -0 -0 -0 -0 -0 -0 -0 -0 -0 -0 -0 -0 -0 -0 -0 -0 -0 -0 -0 -0 -0 -0 -0 -0 -0 -0 -0 -0
-0 -0 -0 -2 -3 -0 -0 -0 -0 -2 -0 -0 -0 -0 -0 -0 -0 -0 -0 -0 -0 -0 -6 -0 -0 -0 -0 -0 -0 -0 -0 -0 -0 -0 -0 -0 -0 -0 -0 -0 -0 -0 -0 -0 -0 -0 -0 -0 -0 -0 -0 -0 -0 -0
-1 -4 -3 -2 -3 -0 -0 -0 -0 -0 -0 -0 -0 -0 -0 -0 -0 -0 -0 -0 -0 -0 -6 -4 -0 -0 -0 -0 -0 -0 -0 -0 -0 -0 -0 -0 -0 -0 -0 -0 -0 -0 -0 -0 -0 -0 -0 -0 -0 -0 -0 -0 -0 -0
-2 -4 -2 -1 -3 -0 -0 -0 -0 -0 -0 -0 -0 -0 -0 -0 -0 -0 -0 -0 -0 -0 -0 -0 -0 -0 -0 -0 -0 -0 -0 -0 -0 -0 -0 -0 -0 -0 -0 -0 -0 -0 -0 -0 -0 -0 -0 -0 -0 -0 -0 -0 -0 -0
-0 -5 -7 -0 -0 -0 -0 -0 -0 -0 -0 -0 -0 -0 -0 -0 -0 -0 -0 -1 -0 -0 -0 -0 -0 -0 -0 -0 -0 -0 -0 -0 -0 -0 -0 -0 -0 -0 -0 -0 -0 -0 -0 -0 -0 -0 -0 -0 -0 -0 -0 -0 -0 -0
-0 -0 -0 -0 -0 -0 -0 -0 -0 -0 -0 -0 -0 -2 -0 -0 -0 -0 -4 -0 -0 -0 -0 -0 -0 -0 -0 -0 -0 -0 -0 -0 -0 -0 -0 -0 -0 -0 -0 -0 -0 -0 -0 -0 -0 -0 -0 -0 -0 -0 -0 -0 -0 -0
-0 -0 -0 -0 -0 -0 -0 -0 -0 -0 -0 -0 -0 -0 -0 -0 -0 -0 -0 -0 -0 -0 -0 -0 -0 -0 -0 -0 -0 -0 -0 -0 -0 -0 -0 -0 -0 -0 -0 -0 -0 -0 -0 -0 -0 -0 -0 -0 -0 -0 -0 -0 -0 -0
-0 -0 -0 -0 -0 -0 -0 -0 -0 -0 -0 -0 -0 -0 -0 -0 -0 -0 -0 -0 -0 -0 -0 -0 -0 -0 -0 -0 -0 -0 -0 -0 -0 -0 -0 -0 -0 -0 -0 -0 -0 -0 -0 -0 -0 -0 -0 -0 -0 -0 -0 -0 -0 -0
-0 -0 -0 -0 -0 -0 -0 -0 -0 -0 -0 -0 -0 -0 -0 -0 -0 -0 -0 -0 -0 -0 -0 -0 -0 -0 -0 -0 -0 -0 -0 -0 -0 -0 -0 -0 -0 -0 -0 -0 -0 -0 -0 -0 -0 -0 -0 -0 -0 -0 -0 -0 -0 -0
-0 -0 -0 -0 -0 -0 -0 -0 -0 -0 -0 -0 -0 -0 -0 -0 -0 -0 -0 -0 -0 -0 -0 -0 -0 -0 -0 -0 -0 -0 -0 -0 -0 -0 -0 -0 -0 -0 -0 -0 -0 -0 -0 -0 -0 -0 -0 -0 -0 -0 -0 -0 -0 -0
-0 -0 -0 -0 -0 -0 -0 -0 -0 -0 -0 -0 -0 -0 -0 -0 -0 -0 -0 -0 -0 -0 -0 -0 -0 -0 -0 -0 -0 -0 -0 -0 -0 -0 -0 -0 -0 -0 -0 -0 -0 -0 -0 -0 -0 -0 -0 -0 -0 -0 -0 -0 -0 -0
-0 -0 -0 -0 -0 -0 -0 -0 -0 -0 -0 -0 -0 -0 -0 -0 -0 -0 -0 -0 -0 -0 -0 -0 -0 -0 -0 -0 -0 -0 -0 -0 -0 -0 -0 -0 -0 -0 -0 -0 -0 -0 -0 -0 -0 -0 -0 -0 -0 -0 -0 -0 -0 -0
-0 -0 -0 -0 -0 -0 -0 -0 -0 -0 -0 -0 -0 -0 -0 -0 -0 -0 -0 -0 -0 -0 -0 -0 -0 -0 -0 -0 -0 -0 -0 -0 -0 -0 -0 -0 -0 -0 -0 -0 -0 -0 -0 -0 -0 -0 -0 -0 -0 -0 -0 -0 -0 -0
-0 -0 -0 -0 -0 -0 -0 -0 -0 -0 -0 -0 -0 -0 -0 -0 -0 -0 -0 -0 -0 -0 -0 -0 -0 -0 -0 -0 -0 -0 -0 -0 -0 -0 -0 -0 -0 -0 -0 -0 -0 -0 -0 -0 -0 -0 -0 -0 -0 -0 -0 -0 -0 -0
-0 -0 -0 -0 -0 -0 -0 -0 -0 -0 -0 -0 -0 -0 -0 -0 -0 -0 -0 -0 -0 -0 -0 -0 -0 -0 -0 -0 -0 -0 -0 -0 -0 -0 -0 -0 -0 -0 -0 -0 -0 -0 -0 -0 -0 -0 -0 -0 -0 -0 -0 -0 -0 -0
-0 -0 -0 -0 -0 -0 -0 -0 -0 -0 -0 -0 -0 -0 -0 -0 -0 -0 -0 -0 -0 -0 -0 -0 -0 -0 -0 -0 -0 -0 -0 -0 -0 -0 -0 -0 -0 -0 -0 -0 -0 -0 -0 -0 -0 -0 -0 -0 -0 -0 -0 -0 -0 -0
Wind_Speed
26 28 26 27 29 26 28 28 24 22 21 21 22 20 19 18 16 17 16 15 16 17 15 13 13 13 13 13 13 13 14 13 14 14 15 15 15 16 15 16 17 19 21 20 22 21 19 17 15 21 19 19 20 17
24 26 25 25 27 27 24 25 24 23 22 23 23 22 19 17 17 17 18 16 16 18 17 16 15 13 14 13 12 11 13 12 12 13 14 15 14 15 15 15 17 17 19 18 21 19 19 19 19 19 20 21 19 15
23 24 23 23 22 21 23 24 26 27 27 25 24 19 19 18 18 17 17 15 16 20 21 19 17 15 15 14 13 13 13 11 12 12 12 12 11 12 13 14 15 16 14 18 18 17 20 19 16 5 17 20 17 15
24 23 22 23 22 22 19 27 22 22 25 25 22 20 19 18 17 17 18 15 16 18 23 21 18 17 16 16 14 15 12 13 13 13 12 11 12 11 12 14 8 5 8 7 22 25 26 27 15 17 15 16 15 14
24 24 22 22 22 21 21 21 26 22 21 22 22 20 17 16 17 19 20 17 16 19 22 21 18 18 19 16 12 12 12 14 13 13 14 12 13 11 16 18 15 4 4 6 12 18 18 19 22 17 9 10 10 11
26 25 25 22 22 23 22 20 21 25 21 19 20 19 16 14 16 21 23 20 16 15 23 26 22 21 19 17 16 15 14 15 15 15 15 15 13 13 16 17 10 6 7 9 17 17 16 19 21 15 11 10 10 11
25 26 25 24 22 22 22 22 21 22 24 20 17 16 14 12 16 20 21 18 12 13 21 24 23 21 18 17 19 18 17 17 15 15 17 17 15 12 16 19 16 11 7 11 14 17 19 17 18 14 13 12 11 12
24 24 26 26 24 22 22 23 23 22 23 22 17 14 11 9 13 19 16 11 12 14 18 23 22 20 14 18 19 19 18 19 19 19 19 17 15 16 18 10 14 15 16 17 15 14 17 16 14 14 12 11 11 12
24 24 24 26 27 25 22 22 23 24 23 23 21 11 13 17 20 17 9 11 14 17 21 20 22 23 15 17 18 18 18 20 21 22 22 17 16 16 19 20 18 13 16 16 14 15 15 15 14 13 12 12 12 13
24 23 23 24 27 27 25 22 23 23 23 22 12 18 22 19 6 5 16 20 22 23 22 24 18 20 15 17 19 18 19 20 24 21 19 22 25 20 21 20 20 18 16 13 16 18 16 16 13 12 12 12 11 12
25 24 24 24 24 25 27 25 23 23 20 18 19 20 15 8 14 18 22 23 22 26 24 24 20 20 17 20 19 19 20 20 25 23 23 26 28 24 21 18 14 16 15 13 17 18 14 14 10 10 11 11 11 13
25 24 25 25 25 25 24 24 24 23 21 18 16 15 15 18 20 23 26 24 25 28 22 20 17 15 15 14 18 19 22 22 25 20 24 27 26 21 18 17 15 14 11 11 13 14 13 10 8 9 10 11 12 13
26 25 25 25 25 25 24 23 20 17 15 19 20 20 22 23 29 32 33 31 29 24 20 15 15 14 15 15 19 20 23 25 19 25 27 25 24 20 17 16 17 15 12 9 11 11 9 9 9 9 10 12 13 16
26 26 26 26 25 25 25 24 20 19 24 25 25 28 27 27 32 32 32 30 27 24 17 14 15 17 16 16 18 22 21 20 25 28 29 24 20 15 15 15 14 12 9 8 8 7 7 7 9 11 13 14 17 21
25 26 27 27 26 26 26 23 20 20 23 29 27 33 31 26 24 25 28 27 24 16 14 15 16 16 17 20 20 20 23 28 25 25 21 21 18 15 13 13 11 9 8 7 7 7 7 8 10 13 15 17 20 22
26 27 27 25 26 25 23 19 19 21 25 27 31 34 31 30 29 28 25 25 20 16 16 17 20 23 25 22 24 26 25 28 24 20 21 19 17 14 12 10 9 7 6 6 7 8 9 10 13 17 18 20 21 24
26 25 23 24 24 23 17 19 21 25 26 29 35 34 33 29 28 25 26 24 16 18 24 21 26 27 19 29 33 27 30 25 21 24 21 19 17 14 11 9 8 7 6 7 8 9 12 14 17 18 20 22 24 27
24 25 25 25 23 18 19 20 23 26 34 33 34 32 31 33 33 31 26 18 21 26 26 28 22 28 31 36 34 26 25 26 26 26 24 21 19 15 12 10 8 7 7 8 10 12 15 16 18 20 23 26 30 32
25 26 24 22 18 20 21 23 24 32 33 32 34 34 33 32 32 32 31 29 28 26 27 28 31 34 36 31 30 29 28 28 29 28 27 23 19 15 13 11 9 8 9 10 13 15 16 18 20 22 25 28 32 34
27 28 25 21 17 21 24 26 23 30 33 33 32 34 36 39 39 39 39 35 34 35 38 40 42 37 31 29 29 32 32 31 29 31 28 23 19 17 15 12 10 9 11 14 15 16 18 21 22 24 27 30 33 37
29 29 24 20 19 23 24 24 26 28 29 32 31 32 35 33 37 38 39 35 38 41 44 44 45 45 43 43 40 38 37 33 34 32 32 28 21 18 16 14 12 13 14 15 16 17 19 22 25 27 30 32 32 34
19 16 17 17 22 22 28 25 25 24 28 30 28 28 31 33 35 35 31 37 44 46 45 47 49 49 50 50 48 44 42 37 34 32 29 24 22 19 16 15 15 16 15 16 17 19 22 24 26 28 30 33 33 34
10 12 13 16 22 25 28 21 28 28 31 30 29 33 35 35 33 27 35 37 41 40 41 44 45 45 46 46 44 44 42 41 39 35 30 28 24 20 19 17 16 16 18 20 20 21 23 25 27 28 30 31 32 35
13 15 18 21 24 27 22 26 26 27 27 29 31 36 36 35 30 34 42 43 41 36 36 39 38 40 40 42 45 44 41 36 37 34 30 27 24 21 17 15 16 19 20 22 21 22 24 26 28 30 31 31 33 37
16 18 20 24 22 24 27 28 28 29 33 31 33 34 30 27 32 35 39 36 32 34 35 34 35 36 39 41 39 37 31 29 30 30 24 20 18 16 16 16 20 22 22 23 24 25 28 29 30 30 30 32 36 39
18 18 18 20 21 23 24 29 29 29 28 29 29 27 24 25 27 28 25 27 30 32 32 32 33 34 34 33 33 30 24 21 19 18 16 15 14 13 15 17 21 26 22 21 24 27 29 31 30 30 32 34 36 39
18 20 20 21 21 21 23 24 24 25 27 27 23 19 19 22 25 27 27 28 31 30 28 26 24 24 24 22 17 13 9 9 13 14 15 16 17 17 19 22 26 25 21 22 23 26 29 29 30 32 35 36 37 39
16 17 20 21 22 23 23 22 23 24 22 20 16 20 20 22 26 28 28 30 28 25 20 17 14 12 10 9 6 6 8 10 12 13 14 16 18 19 19 20 21 23 23 23 25 26 26 28 31 34 36 39 40 38
15 18 16 16 16 17 19 20 20 20 20 21 21 22 22 20 22 21 21 21 18 16 11 9 7 5 7 10 10 11 9 5 7 11 12 15 19 21 21 21 21 21 21 22 24 26 28 31 33 36 37 37 38 37
17 18 16 15 15 15 15 16 17 18 17 17 18 17 16 14 16 16 17 18 16 13 10 9 8 9 7 6 5 8 9 10 14 16 19 20 18 15 16 18 20 22 24 26 29 32 34 35 37 38 38 39 37 35
19 17 16 15 14 15 16 16 16 15 15 13 12 11 11 14 15 16 18 18 15 13 12 10 9 10 9 10 11 12 14 13 12 12 13 14 15 17 20 21 23 25 28 32 35 37 39 39 38 37 36 35 33 30
19 18 18 18 18 18 18 17 18 16 16 14 15 15 16 16 16 17 20 19 17 16 16 14 14 13 12 13 12 14 13 11 11 12 13 15 17 19 22 25 28 30 33 35 36 36 35 35 35 34 33 32 29 23
20 19 19 19 20 20 21 21 20 20 18 18 18 18 18 18 17 18 19 18 16 15 14 14 14 14 12 12 12 12 13 13 13 15 17 19 22 25 27 29 31 32 33 34 33 32 32 31 30 28 25 23 24 25
Wind_Direction
287 286 287 285 272 244 247 248 253 258 260 267 269 277 283 296 305 306 311 326 322 324 339 352 12 19 16 20 45 55 61 103 108 130 142 150 151 153 155 154 150 150 154 167 177 182 194 245 266 235 264 288 293 302
292 286 284 288 289 245 246 246 248 255 260 263 266 270 277 290 296 300 301 316 320 310 321 328 341 357 354 6 11 29 19 50 81 84 128 124 144 145 157 166 158 164 161 170 167 180 212 182 252 272 287 292 308 322
293 286 290 284 287 290 239 250 253 254 258 259 265 268 270 277 288 293 299 307 311 302 304 310 317 333 339 339 345 350 351 9 10 4 19 22 125 84 130 159 150 169 145 187 215 204 202 197 194 153 321 313 326 328
287 283 289 285 284 285 291 252 258 258 259 258 257 262 265 271 281 291 294 303 308 306 296 301 312 317 327 327 331 323 345 354 355 351 359 10 359 3 358 328 154 234 66 217 231 242 246 248 321 321 327 325 327 327
286 275 281 287 282 285 284 280 261 256 258 259 257 259 264 271 278 287 289 294 301 295 294 299 309 312 311 316 329 330 325 328 338 343 340 351 349 359 338 326 200 49 67 30 298 315 326 321 312 330 343 338 336 333
277 275 270 283 283 277 283 287 279 261 254 260 262 260 262 268 277 281 281 285 293 303 293 287 296 297 301 304 311 314 318 319 318 323 327 332 340 344 334 329 3 105 15 356 333 338 342 332 329 341 344 342 340 337
280 274 272 273 282 281 277 282 285 279 263 251 259 262 261 263 273 274 281 295 298 299 291 290 293 297 299 300 301 306 308 313 316 320 316 316 321 330 326 319 330 340 347 336 330 328 327 331 333 343 343 344 345 344
280 282 274 269 274 280 277 276 279 282 276 263 250 256 259 266 282 277 287 306 304 296 295 285 292 299 307 298 298 302 305 302 304 307 314 315 320 316 314 311 322 326 326 325 327 327 326 334 340 341 344 343 339 337
279 281 283 272 269 272 277 277 275 276 278 272 257 247 267 269 269 278 294 299 301 291 285 288 287 291 305 301 304 304 305 303 306 302 303 312 313 308 312 312 310 312 317 322 327 328 330 329 332 334 335 333 332 333
276 280 282 283 271 269 270 275 277 273 275 272 255 251 258 266 280 288 288 281 279 280 282 282 293 289 302 299 298 303 307 305 302 308 315 307 305 306 304 307 308 310 310 317 316 316 319 321 323 326 327 331 333 334
274 277 278 280 284 275 271 269 273 272 269 269 265 262 271 264 273 275 272 271 274 278 280 282 275 281 291 291 294 298 302 307 302 307 308 309 312 319 319 316 305 306 310 308 315 321 322 324 325 331 335 339 340 339
272 275 276 276 278 279 277 273 271 267 262 261 267 272 262 267 268 265 264 270 271 274 281 282 285 284 288 300 296 300 297 303 300 313 309 310 318 324 328 328 328 326 319 316 320 324 330 335 338 342 344 343 343 343
270 274 275 275 275 274 272 273 276 269 259 262 266 261 260 260 256 256 256 263 266 276 279 284 286 289 292 293 292 294 293 294 310 303 306 312 318 324 328 331 332 333 333 330 332 339 347 352 354 354 352 349 345 339
269 270 274 274 275 272 268 266 268 264 262 256 253 255 254 260 256 258 262 267 271 276 271 271 281 289 290 281 290 290 294 300 297 300 306 316 322 326 331 331 333 336 342 347 352 2 4 2 357 352 346 343 338 334
271 270 270 273 275 272 267 263 264 262 263 253 252 252 255 261 269 273 269 272 278 277 262 270 284 288 283 284 287 290 290 291 296 305 314 322 327 331 331 332 334 337 342 347 355 358 358 356 349 342 340 337 336 333
268 269 268 273 274 268 262 261 263 261 261 260 255 253 256 263 263 268 276 274 278 262 267 277 277 276 274 279 279 279 282 287 302 311 316 324 329 329 328 327 328 333 334 338 342 343 343 339 335 333 334 334 334 333
267 267 271 275 272 266 256 258 261 257 260 260 256 255 256 260 265 271 267 272 274 259 264 273 269 270 280 276 274 276 281 294 304 311 315 318 319 317 320 319 316 315 316 319 325 328 328 330 331 330 329 332 332 331
265 269 271 267 267 262 260 259 260 261 258 261 260 262 262 261 262 265 272 279 272 266 268 272 278 269 271 272 277 286 286 293 300 305 308 309 310 308 307 305 302 299 303 310 317 321 323 324 325 326 327 329 328 328
263 265 267 269 260 257 260 261 263 263 262 265 264 263 265 267 266 267 267 267 271 273 274 275 272 269 268 275 283 290 294 297 301 304 304 303 301 298 296 296 292 293 297 305 310 315 319 321 323 325 327 327 326 328
261 262 265 262 256 258 261 265 267 264 266 267 268 267 266 266 266 265 265 265 265 266 266 264 264 271 279 284 286 291 293 295 298 300 301 301 297 293 286 281 277 283 297 305 310 314 316 319 322 325 326 326 327 327
260 260 260 258 255 257 264 267 265 271 272 270 273 271 270 271 268 266 265 265 263 264 266 266 268 270 272 275 279 284 287 290 293 295 296 297 293 289 283 276 274 284 294 300 303 308 313 316 321 324 325 327 329 330
262 258 258 255 260 261 261 266 273 276 274 275 274 274 274 272 272 272 274 267 265 265 267 269 269 271 272 273 274 276 280 284 286 288 290 290 286 282 274 269 273 279 288 293 300 307 313 318 322 324 327 328 330 331
266 264 258 258 262 265 268 270 269 272 273 275 277 275 274 275 278 280 275 274 274 272 272 271 272 273 273 276 277 276 275 274 276 280 280 282 286 279 272 268 271 278 287 294 300 307 312 319 322 325 327 329 330 330
271 265 265 267 263 268 275 270 274 275 276 275 275 274 277 278 280 278 278 277 277 279 276 273 274 275 276 276 275 276 276 275 273 274 275 276 275 269 268 266 270 282 290 301 303 308 314 318 321 323 325 326 328 328
273 272 273 269 272 270 269 271 272 273 272 275 276 277 280 283 280 279 278 281 282 281 281 279 277 275 275 276 278 277 278 274 270 269 269 266 269 272 270 273 279 286 294 298 301 307 312 316 319 321 324 325 326 327
272 277 277 275 273 271 271 271 271 273 278 276 276 281 283 281 280 282 289 297 294 291 288 283 278 278 276 277 278 278 274 276 270 262 260 265 268 263 267 275 284 291 297 300 305 308 312 316 319 321 323 325 326 327
277 279 278 275 277 281 282 283 284 281 276 274 278 281 285 283 285 294 304 306 303 303 303 297 290 283 283 286 287 284 274 272 273 273 273 271 273 278 282 286 290 298 308 309 311 313 315 318 319 321 322 324 326 328
288 289 284 282 276 275 280 288 285 281 279 276 278 276 286 291 297 299 309 306 305 305 311 314 302 296 301 304 296 283 277 275 278 280 280 281 284 288 293 298 305 310 314 315 315 317 319 320 321 322 323 323 325 328
302 297 295 295 292 291 288 285 288 283 274 261 270 272 283 304 298 298 314 322 331 350 357 351 343 343 311 308 277 267 282 280 276 283 287 290 292 299 307 311 315 319 322 323 323 323 322 322 322 322 323 324 325 327
302 307 301 308 306 302 296 285 280 273 280 284 290 293 289 299 291 301 329 11 2 5 348 309 320 316 346 351 323 303 301 298 295 293 294 297 306 323 329 328 327 327 326 326 325 324 323 323 323 323 323 324 327 328
298 304 306 307 309 306 298 289 292 299 306 308 311 306 304 304 308 323 341 326 318 332 349 348 337 324 330 327 317 309 304 315 322 326 329 331 331 329 328 328 329 328 327 325 323 323 323 323 324 325 326 327 329 331
303 305 299 294 296 302 307 306 303 307 304 307 303 301 300 302 310 308 312 311 304 304 313 324 320 323 328 324 329 329 332 341 340 338 338 335 333 333 332 330 329 328 326 326 326 326 327 327 328 328 328 329 333 338
302 305 307 301 298 296 299 297 298 296 299 297 298 300 303 305 307 308 322 328 329 324 326 332 337 343 350 346 346 347 349 348 348 345 340 337 334 333 332 332 331 331 331 331 330 330 330 331 330 333 337 341 342 343